[[{"header":{"parameterUnit":"m.s-1","parameterCategory":1,"la1":30.2991,"la2":30.254,"lo1":-89.0895,"lo2":-89.0444,"dy":0.0017,"dx":0.0017,"nx":28,"ny":28,"refTime":"2024-02-11T09:00:00:Z","depth":0,"parameterNumber":2,"parameterNumberName":"U-component_of_WINDS"},"data":[0,0,0,0,0,0,0,0,0,0,0,0,0,0,0,0,0,0,0,0,0,0,0,0,0,0,0,0,0,0,0,0,0,0,0,0,0,0,0,0,0,0,0,0,0,0,0,0,0,0,0,0,0,0,0,0,0,0,-2.5356,-2.5357,0,-2.5411,-2.5412,-2.5412,-2.5393,-2.5392,-2.539,-2.5389,-2.5448,-2.5451,-2.5453,0,0,0,0,0,0,0,0,0,0,0,0,0,-2.5238,-2.524,-2.5356,-2.5357,-2.5357,-2.5411,-2.5412,-2.5412,-2.5393,-2.5392,-2.539,-2.5389,-2.5447,-2.545,-2.5453,0,0,0,0,0,0,0,0,0,0,0,0,0,-2.5291,-2.5241,-2.5356,-2.5354,-2.5355,-2.5411,-2.5412,-2.5413,-2.5393,-2.5392,-2.539,-2.5388,-2.5446,-2.545,-2.5454,-2.5516,0,0,-2.5466,-2.5468,0,0,0,0,0,0,0,0,-2.5288,-2.5295,-2.5354,-2.5354,-2.5355,-2.5393,-2.5391,-2.5447,-2.5394,-2.5379,-2.5389,-2.5387,-2.5431,-2.5437,-2.5451,-2.5519,-2.5521,-2.5467,-2.5469,-2.5471,-2.5472,0,0,0,0,0,0,0,-2.5284,-2.5293,-2.5378,-2.5355,-2.5355,-2.5352,-2.5357,-2.5402,-2.5415,-2.538,-2.5379,-2.5385,-2.5431,-2.5447,-2.5452,-2.5522,-2.5467,-2.547,-2.5473,-2.5474,-2.5644,-2.5646,0,0,0,0,0,0,-2.528,-2.529,-2.5376,-2.5379,-2.5316,-2.5355,-2.5361,-2.5383,-2.5414,-2.5417,-2.5387,-2.5384,-2.5441,-2.5447,-2.5454,-2.5528,-2.5471,-2.5475,-2.5477,-2.5642,-2.5645,-2.5647,0,0,0,0,0,0,-2.5277,-2.5288,-2.5374,-2.5334,-2.5345,-2.5359,-2.5383,-2.5385,-2.54,-2.5419,-2.5422,-2.54,-2.544,-2.5448,-2.5501,-2.553,-2.5476,-2.548,-2.564,-2.5643,-2.5646,-2.5677,0,0,0,0,0,0,-2.5274,-2.5287,-2.531,-2.5335,-2.5347,-2.5418,-2.5385,-2.5387,-2.5407,-2.5404,-2.5433,-2.5436,-2.5439,-2.5495,-2.5505,-2.5535,-2.5483,-2.5637,-2.5641,-2.5645,-2.5674,-2.5681,-2.5688,0,0,0,0,0,-2.527,-2.5317,-2.5311,-2.5321,-2.5376,-2.542,-2.5427,-2.5429,-2.541,-2.5433,-2.5446,-2.5435,-2.5526,-2.55,-2.5511,-2.5543,-2.5635,-2.564,-2.5644,-2.5671,-2.568,-2.5688,0,0,0,0,0,0,-2.5295,-2.532,-2.5314,-2.537,-2.5393,-2.5417,-2.5446,-2.5439,-2.5469,-2.5465,-2.5467,-2.5474,-2.5528,-2.5541,-2.5512,-2.5605,-2.5578,-2.5585,-2.5594,-2.5603,-2.5609,-2.5604,-2.5487,0,0,0,0,0,-2.5307,-2.534,-2.5361,-2.5408,-2.542,-2.5431,-2.5451,-2.5451,-2.5475,-2.5485,-2.5501,-2.5526,-2.556,-2.5583,-2.5615,-2.5677,-2.5683,-2.5704,-2.5711,-2.5717,-2.5722,-2.5756,-2.5766,-2.5662,-2.5662,-2.5662,0,0,-2.5332,-2.535,-2.5371,-2.5414,-2.5432,-2.5467,-2.544,-2.5478,-2.5504,-2.5491,-2.554,-2.5554,-2.5582,-2.5639,-2.5665,-2.5652,-2.5753,-2.5723,-2.5727,-2.5729,-2.5762,-2.5772,-2.578,-2.5665,-2.5665,-2.5664,0,0,-2.5395,-2.5413,-2.5454,-2.5473,-2.55,-2.5507,-2.5517,-2.5543,-2.5551,-2.5601,-2.5592,-2.5624,-2.5683,-2.5703,-2.5721,-2.5795,-2.5786,-2.5805,-2.5841,-2.5874,-2.5882,-2.5889,-2.5915,-2.5924,-2.5811,-2.5811,-2.5812,0,-2.5423,-2.5474,-2.5476,-2.5515,-2.5535,-2.5525,-2.5567,-2.5586,-2.5623,-2.5637,-2.5622,-2.5696,-2.5714,-2.5776,-2.5794,-2.5809,-2.5821,-2.5801,-2.588,-2.5888,-2.5895,-2.5919,-2.5928,-2.5814,-2.5813,-2.5813,-2.5813,0,-2.5507,-2.5543,-2.5574,-2.5609,-2.5632,-2.5673,-2.5682,-2.5706,-2.5705,-2.5714,-2.5766,-2.5788,-2.5824,-2.584,-2.5839,-2.5902,-2.5893,-2.5879,-2.5851,-2.5906,-2.5929,-2.5939,-2.5817,-2.5816,-2.5815,-2.5815,0,0,-2.5586,-2.5622,-2.5633,-2.5649,-2.5679,-2.5708,-2.5749,-2.5784,-2.5804,-2.5832,-2.5866,-2.5917,-2.5905,-2.5925,-2.5928,-2.5957,-2.6013,-2.594,-2.594,-2.5951,-2.6083,-2.6092,-2.6102,-2.6008,-2.601,-2.6012,-2.608,0,-2.565,-2.5721,-2.5724,-2.5789,-2.5822,-2.5814,-2.585,-2.5873,-2.5884,-2.5915,-2.5928,-2.5963,-2.5945,-2.5957,-2.5986,-2.6,-2.6039,-2.5995,-2.604,-2.6042,-2.6031,-2.6115,-2.6124,-2.6187,-2.609,-2.6091,-2.6092,0,-2.5735,-2.5763,-2.583,-2.5856,-2.5871,-2.5902,-2.5936,-2.5965,-2.5992,-2.5998,-2.6022,-2.602,-2.6064,-2.6036,-2.6096,-2.6066,-2.6086,-2.6096,-2.6098,-2.6101,-2.6069,-2.6118,-2.6208,-2.6217,-2.6106,-2.6105,-2.6104,0,-2.5784,-2.5839,-2.5886,-2.5901,-2.5932,-2.5955,-2.597,-2.5995,-2.6016,-2.6046,-2.606,-2.6095,-2.6114,-2.6142,-2.615,-2.613,-2.621,-2.6183,-2.6216,-2.6216,-2.6232,-2.623,-2.6324,-2.6247,-2.6247,-2.6247,-2.6247,0,-2.5854,-2.5896,-2.5909,-2.5938,-2.5984,-2.5989,-2.6036,-2.6049,-2.6072,-2.6104,-2.6101,-2.6132,-2.6141,-2.6174,-2.6182,-2.623,-2.6239,-2.6246,-2.6247,-2.6245,-2.6244,-2.6256,-2.6251,-2.625,-2.6249,-2.6249,-2.6248,0,-2.5916,-2.5926,-2.5977,-2.6004,-2.6011,-2.6044,-2.6067,-2.6096,-2.6107,-2.6148,-2.6158,-2.6175,-2.6214,-2.6226,-2.6273,-2.6278,-2.6334,-2.6332,-2.6324,-2.6324,-2.6356,-2.6352,-2.6459,-2.6473,-2.6389,-2.639,-2.639,0,-2.5959,-2.599,-2.602,-2.6041,-2.6056,-2.609,-2.6112,-2.612,-2.6143,-2.6176,-2.6201,-2.6239,-2.627,-2.6332,-2.635,-2.6386,-2.6384,-2.6419,-2.6389,-2.6386,-2.6383,-2.638,-2.6383,-2.6424,-2.6425,-2.6426,-2.6426,0,-2.6035,-2.6039,-2.6069,-2.6103,-2.6129,-2.6155,-2.6181,-2.6199,-2.621,-2.6237,-2.6276,-2.63,-2.6347,-2.6385,-2.6422,-2.6439,-2.6435,-2.6436,-2.6445,-2.6442,-2.6436,-2.6439,-2.6338,-2.6433,-2.6432,-2.6432,-2.6431,-2.6431,-2.6088,-2.6115,-2.614,-2.6175,-2.6195,-2.622,-2.6248,-2.6262,-2.6295,-2.6333,-2.6337,-2.6379,-2.6407,-2.6456,-2.6474,-2.6508,-2.6498,-2.6512,-2.6515,-2.6518,-2.652,-2.6433,-2.6515,-2.6515,-2.6515,-2.6515,-2.6515,0,-2.6162,-2.6178,-2.621,-2.6246,-2.6274,-2.6268,-2.6296,-2.632,-2.6357,-2.6383,-2.6413,-2.6458,-2.6496,-2.6517,-2.6554,-2.6577,-2.6577,-2.6587,-2.6584,-2.6588,-2.6527,-2.6515,-2.6587,-2.6587,-2.6587,-2.6587,-2.6587,-2.6587,-2.6204,-2.625,-2.6257,-2.6314,-2.633,-2.637,-2.6387,-2.641,-2.6431,-2.6481,-2.6512,-2.6525,-2.6549,-2.6589,-2.6623,-2.6629,-2.6642,-2.6654,-2.6658,-2.66,-2.6592,-2.6585,-2.6573,-2.6657,-2.6657,-2.6715,-2.6716,-2.6716]},{"header":{"parameterUnit":"m.s-1","parameterCategory":1,"la1":30.2991,"la2":30.254,"lo1":-89.0895,"lo2":-89.0444,"dy":0.0017,"dx":0.0017,"nx":28,"ny":28,"refTime":"2024-02-11T09:00:00:Z","depth":0,"parameterNumber":3,"parameterNumberName":"V-component_of_WINDS"},"data":[0,0,0,0,0,0,0,0,0,0,0,0,0,0,0,0,0,0,0,0,0,0,0,0,0,0,0,0,0,0,0,0,0,0,0,0,0,0,0,0,0,0,0,0,0,0,0,0,0,0,0,0,0,0,0,0,0,0,2.6471,2.6471,0,2.6552,2.6553,2.6554,2.66,2.6601,2.6601,2.6601,2.6685,2.6687,2.6689,0,0,0,0,0,0,0,0,0,0,0,0,0,2.6356,2.6358,2.647,2.6471,2.6473,2.6552,2.6553,2.6555,2.66,2.6601,2.6601,2.6601,2.6684,2.6687,2.6689,0,0,0,0,0,0,0,0,0,0,0,0,0,2.6418,2.6358,2.647,2.6505,2.6509,2.6552,2.6553,2.6555,2.66,2.6601,2.6601,2.6601,2.6683,2.6686,2.669,2.6705,0,0,2.6699,2.6701,0,0,0,0,0,0,0,0,2.6415,2.6423,2.6499,2.6503,2.6507,2.6566,2.6544,2.6605,2.66,2.6566,2.6601,2.6601,2.6645,2.6652,2.6667,2.6708,2.6712,2.6699,2.6701,2.6703,2.6704,0,0,0,0,0,0,0,2.641,2.6419,2.6503,2.65,2.6505,2.6517,2.6526,2.6556,2.6603,2.6569,2.6572,2.6581,2.6648,2.6663,2.6669,2.6713,2.6699,2.6702,2.6704,2.6705,2.6774,2.6774,0,0,0,0,0,0,2.64,2.6415,2.65,2.6505,2.6461,2.6519,2.6529,2.6547,2.6603,2.6612,2.6581,2.6583,2.6658,2.6665,2.6672,2.6695,2.6703,2.6706,2.6707,2.6774,2.6774,2.6774,0,0,0,0,0,0,2.6398,2.6407,2.6497,2.6461,2.6474,2.6521,2.6541,2.6549,2.6564,2.6612,2.6621,2.6588,2.6658,2.6668,2.6697,2.6698,2.6707,2.671,2.6775,2.6774,2.6774,2.6739,0,0,0,0,0,0,2.6394,2.6406,2.6412,2.6461,2.6475,2.652,2.6541,2.655,2.657,2.6573,2.6621,2.663,2.6659,2.6692,2.67,2.6703,2.6712,2.6775,2.6775,2.6774,2.6741,2.6738,2.6736,0,0,0,0,0,2.639,2.6398,2.6412,2.6422,2.6483,2.652,2.6528,2.6562,2.657,2.6576,2.6607,2.6628,2.6697,2.6694,2.6704,2.6708,2.6775,2.6775,2.6774,2.6742,2.6739,2.6736,0,0,0,0,0,0,2.6347,2.6405,2.6421,2.6445,2.6477,2.6527,2.6536,2.6557,2.6587,2.6589,2.663,2.6641,2.6666,2.669,2.6686,2.6727,2.6738,2.674,2.671,2.6708,2.6705,2.6699,2.6715,0,0,0,0,0,2.6341,2.6365,2.6414,2.6431,2.6447,2.6489,2.6506,2.6529,2.6564,2.6578,2.6611,2.6644,2.6674,2.6692,2.6721,2.6744,2.6757,2.6752,2.675,2.6748,2.6749,2.6765,2.6764,2.6774,2.6774,2.6774,0,0,2.6327,2.6362,2.6375,2.6424,2.6451,2.6476,2.65,2.6524,2.6544,2.6581,2.6611,2.6637,2.6677,2.6704,2.6717,2.6724,2.6749,2.6747,2.6745,2.6748,2.6765,2.6764,2.6763,2.6774,2.6774,2.6774,0,0,2.6316,2.6344,2.6362,2.639,2.6431,2.646,2.6464,2.6511,2.653,2.6561,2.659,2.6614,2.6663,2.6691,2.6712,2.6713,2.6734,2.6722,2.671,2.6725,2.6724,2.6724,2.6726,2.6726,2.6723,2.6723,2.6723,0,2.6294,2.6332,2.6369,2.6393,2.6414,2.645,2.6469,2.6494,2.6543,2.6558,2.6565,2.6629,2.6658,2.6693,2.6694,2.6709,2.6716,2.6716,2.6721,2.6721,2.6721,2.6724,2.6724,2.6721,2.6721,2.6721,2.6722,0,2.6304,2.6331,2.634,2.6388,2.641,2.6431,2.6472,2.6491,2.6513,2.654,2.6573,2.6609,2.6648,2.6658,2.6679,2.6696,2.67,2.6713,2.6726,2.6718,2.6721,2.6722,2.6719,2.6719,2.672,2.672,0,0,2.6267,2.6336,2.6339,2.6361,2.6411,2.6432,2.6456,2.6494,2.651,2.6543,2.6565,2.6607,2.6621,2.6645,2.667,2.6683,2.6684,2.6696,2.6697,2.6693,2.6707,2.6697,2.6697,2.6698,2.6698,2.6699,2.6704,0,2.6264,2.6308,2.6342,2.6374,2.64,2.6435,2.6457,2.649,2.6517,2.6543,2.6574,2.6603,2.6619,2.6633,2.6648,2.668,2.6687,2.6681,2.672,2.6721,2.6709,2.6698,2.6687,2.669,2.6705,2.6706,2.6706,0,2.6265,2.6298,2.6332,2.6381,2.6393,2.6412,2.645,2.6475,2.6514,2.6533,2.656,2.6587,2.6615,2.6625,2.6665,2.666,2.6678,2.6697,2.6698,2.6703,2.6713,2.6704,2.6692,2.6693,2.6708,2.6707,2.6707,0,2.6236,2.6289,2.6317,2.6335,2.6392,2.6405,2.6429,2.6469,2.649,2.6524,2.6539,2.6575,2.6596,2.6624,2.666,2.6664,2.6697,2.671,2.6715,2.6714,2.672,2.6719,2.6711,2.673,2.673,2.673,2.673,0,2.6229,2.6249,2.6305,2.6322,2.6346,2.6386,2.6409,2.6436,2.6472,2.6496,2.6528,2.655,2.6597,2.6624,2.6653,2.6683,2.6691,2.6708,2.6716,2.6706,2.6704,2.6718,2.6719,2.6731,2.673,2.673,2.673,0,2.6201,2.6239,2.6272,2.6324,2.6338,2.6353,2.6398,2.6417,2.6446,2.6477,2.6486,2.6533,2.6567,2.6606,2.6654,2.6673,2.6701,2.6712,2.6688,2.6693,2.6696,2.6695,2.6697,2.67,2.6716,2.6716,2.6716,0,2.6194,2.621,2.6265,2.6283,2.6307,2.6336,2.6359,2.6399,2.6421,2.6468,2.6482,2.6519,2.6551,2.6605,2.6644,2.6681,2.6693,2.6691,2.6698,2.6688,2.6694,2.6693,2.6695,2.6689,2.6688,2.6688,2.6688,0,2.6179,2.6197,2.6228,2.6266,2.6292,2.6323,2.6356,2.637,2.6417,2.6441,2.6477,2.6502,2.6551,2.6588,2.6631,2.6657,2.6681,2.6685,2.6689,2.6679,2.6665,2.6674,2.6683,2.6685,2.6685,2.6686,2.6686,2.6686,2.6162,2.6179,2.622,2.6254,2.6283,2.6314,2.6334,2.6367,2.6398,2.6441,2.6464,2.65,2.6541,2.66,2.6626,2.6656,2.6663,2.6668,2.6669,2.6669,2.6667,2.666,2.6663,2.6663,2.6664,2.6664,2.6664,0,2.6149,2.6178,2.6208,2.6254,2.6281,2.6301,2.634,2.6361,2.6393,2.6429,2.646,2.6503,2.654,2.6581,2.6621,2.6637,2.6649,2.6646,2.6646,2.6652,2.6658,2.6651,2.6636,2.6636,2.6636,2.6636,2.6636,2.6636,2.6145,2.6176,2.6199,2.6245,2.6274,2.631,2.633,2.6359,2.6388,2.6435,2.6465,2.6493,2.6532,2.6575,2.661,2.6622,2.6635,2.6629,2.6644,2.6649,2.6651,2.6653,2.6648,2.6632,2.6632,2.6636,2.6636,2.6636]}]]